Weather History for Liberal, KS

Change the Weather History Date:

Wednesday, November 2, 2011

  Actual Average Record
Temperature  
Mean Temperature 46 °F -  
Max Temperature 59 °F 61 °F 85 °F (1990)
Min Temperature 33 °F 34 °F 8 °F (1951)
Degree Days  
Heating Degree Days 19    
Moisture  
Dew Point 32 °F    
Average Humidity 70    
Maximum Humidity 87    
Minimum Humidity 51    
Precipitation  
Precipitation 0.02 in - - ()
Sea Level Pressure  
Sea Level Pressure 30.14 in    
Wind  
Wind Speed 20 mph (NNW)    
Max Wind Speed 34 mph    
Max Gust Speed 45 mph    
Visibility 9 miles    
Events      
Averages and records for this station are not official NWS values.
T = Trace of Precipitation, MM = Missing Value Source: NWS Daily Summary

Daily Weather History Graph

Daily Weather History Graph

Search for Another Location

Airport:

Trip Planner

Search our weather history database for the weather conditions in past years. The results will help you decide how hot, cold, wet, or windy it might be!

Date:

Astronomy

Nov. 02, 2011 Rise Set
Actual Time 8:08 AM CDT 6:45 PM CDT
Civil Twilight 7:41 AM CDT 7:12 PM CDT
Nautical Twilight 7:11 AM CDT 7:43 PM CDT
Astronomical Twilight 6:40 AM CDT 8:13 PM CDT
Moon 2:29 PM CDT (11/2) 12:31 AM CDT (11/2)
Length of Visible Light 11h 30m
Length of Day
10h 36m
Waxing Crescent, 50% of the Moon is Illuminated
Nov 2
Waxing Crescent
Nov 10
Full
Nov 18
Last Quarter
Nov 25
New
Dec 2
First Quarter

Hourly Weather History & Observations

Time (CDT) Temp. Windchill Dew Point Humidity Pressure Visibility Wind Dir Wind Speed Gust Speed Precip Events Conditions
12:15 AM 57.2 °F - 41.0 °F 55% 29.80 in 10.0 mi East 3.5 mph - N/A   Clear
12:35 AM 59.0 °F - 41.0 °F 51% 29.79 in 10.0 mi SE 4.6 mph - N/A   Clear
12:55 AM 57.2 °F - 39.2 °F 51% 29.78 in 10.0 mi Calm Calm - N/A   Clear
1:15 AM 57.2 °F - 41.0 °F 55% 29.78 in 10.0 mi SE 3.5 mph - N/A   Clear
1:35 AM 55.4 °F - 39.2 °F 54% 29.78 in 10.0 mi South 6.9 mph - N/A   Clear
1:55 AM 55.4 °F - 39.2 °F 54% 29.79 in 10.0 mi WSW 4.6 mph - N/A   Clear
2:15 AM 55.4 °F - 41.0 °F 58% 29.82 in 10.0 mi NNW 9.2 mph - N/A   Clear
2:35 AM 55.4 °F - 41.0 °F 58% 29.82 in 10.0 mi North 18.4 mph 23.0 mph N/A   Clear
2:55 AM 53.6 °F - 37.4 °F 54% 29.82 in 10.0 mi North 23.0 mph 27.6 mph N/A   Clear
3:15 AM 50.0 °F - 35.6 °F 58% 29.82 in 10.0 mi NNE 25.3 mph 31.1 mph N/A   Clear
3:35 AM 48.2 °F - 33.8 °F 58% 29.82 in 10.0 mi NNE 26.5 mph 32.2 mph N/A   Clear
3:55 AM 48.2 °F - 33.8 °F 58% 29.83 in 10.0 mi NNE 29.9 mph 34.5 mph N/A   Clear
4:55 AM 44.6 °F 35.5 °F 32.0 °F 61% 29.86 in 10.0 mi NNE 25.3 mph 34.5 mph N/A   Clear
5:55 AM 44.6 °F 34.2 °F 32.0 °F 61% 29.92 in 10.0 mi North 33.4 mph 41.4 mph N/A   Mostly Cloudy
6:15 AM 44.6 °F 34.4 °F 30.2 °F 57% 29.94 in 10.0 mi North 32.2 mph 40.3 mph N/A   Overcast
6:35 AM 44.6 °F 34.6 °F 30.2 °F 57% 29.95 in 10.0 mi North 31.1 mph 41.4 mph N/A   Overcast
6:55 AM 44.6 °F 35.1 °F 30.2 °F 57% 29.97 in 10.0 mi North 27.6 mph 38.0 mph N/A   Overcast
7:15 AM 44.6 °F 34.1 °F 28.4 °F 53% 29.98 in 10.0 mi NNE 34.5 mph 41.4 mph N/A   Overcast
7:35 AM 44.6 °F 34.4 °F 28.4 °F 53% 30.00 in 10.0 mi North 32.2 mph 38.0 mph N/A   Overcast
7:55 AM 42.8 °F 31.9 °F 26.6 °F 53% 30.01 in 10.0 mi NNE 32.2 mph 42.6 mph N/A   Overcast
8:15 AM 42.8 °F 31.6 °F 26.6 °F 53% 30.04 in 10.0 mi North 34.5 mph 42.6 mph N/A   Overcast
8:35 AM 39.2 °F 27.2 °F 28.4 °F 65% 30.06 in 10.0 mi North 31.1 mph 40.3 mph N/A   Overcast
8:55 AM 37.4 °F 24.8 °F 28.4 °F 70% 30.09 in 5.0 mi North 31.1 mph 35.7 mph N/A   Overcast
9:15 AM 37.4 °F 25.6 °F 28.4 °F 70% 30.10 in 3.0 mi North 26.5 mph 40.3 mph N/A   Overcast
9:35 AM 37.4 °F 25.9 °F 30.2 °F 75% 30.11 in 5.0 mi North 25.3 mph 38.0 mph N/A   Overcast
9:55 AM 37.4 °F 25.4 °F 30.2 °F 75% 30.12 in 7.0 mi North 27.6 mph 32.2 mph N/A   Overcast
10:15 AM 37.4 °F 24.2 °F 30.2 °F 75% 30.13 in 10.0 mi North 34.5 mph 43.7 mph N/A   Overcast
10:35 AM 37.4 °F 25.4 °F 32.0 °F 81% 30.15 in 10.0 mi North 27.6 mph 34.5 mph N/A   Overcast
10:55 AM 37.4 °F 24.4 °F 30.2 °F 75% 30.16 in 10.0 mi NNW 33.4 mph 39.1 mph N/A   Overcast
11:15 AM 37.4 °F 25.0 °F 30.2 °F 75% 30.18 in 10.0 mi North 29.9 mph 38.0 mph N/A   Overcast
11:35 AM 37.4 °F 24.4 °F 30.2 °F 75% 30.17 in 10.0 mi North 33.4 mph 39.1 mph N/A   Overcast
11:55 AM 37.4 °F 25.4 °F 30.2 °F 75% 30.18 in 10.0 mi NNW 27.6 mph 41.4 mph N/A   Overcast
12:15 PM 37.4 °F 24.6 °F 30.2 °F 75% 30.19 in 5.0 mi NW 32.2 mph 36.8 mph N/A   Overcast
12:35 PM 37.4 °F 25.2 °F 30.2 °F 75% 30.20 in 3.0 mi NW 28.8 mph 36.8 mph N/A   Overcast
12:55 PM 37.4 °F 25.0 °F 30.2 °F 75% 30.22 in 3.0 mi NNW 29.9 mph 38.0 mph N/A   Overcast
1:15 PM 35.6 °F 22.3 °F 30.2 °F 81% 30.22 in 2.5 mi NNW 31.1 mph 40.3 mph N/A   Overcast
1:35 PM 35.6 °F 22.1 °F 30.2 °F 81% 30.22 in 3.0 mi NNW 32.2 mph 39.1 mph N/A   Overcast
1:55 PM 35.6 °F 22.3 °F 30.2 °F 81% 30.22 in 5.0 mi NW 31.1 mph 40.3 mph N/A   Overcast
2:15 PM 35.6 °F 22.1 °F 28.4 °F 75% 30.23 in 2.5 mi NW 32.2 mph 42.6 mph 0.01 in   Overcast
2:35 PM 35.6 °F 22.1 °F 30.2 °F 81% 30.24 in 5.0 mi NW 32.2 mph 41.4 mph 0.02 in   Overcast
2:55 PM 37.4 °F 25.4 °F 32.0 °F 81% 30.26 in 5.0 mi NW 27.6 mph 39.1 mph 0.02 in   Overcast
3:15 PM 35.6 °F 21.9 °F 30.2 °F 81% 30.28 in 8.0 mi NW 33.4 mph 44.9 mph N/A   Overcast
3:35 PM 37.4 °F 24.4 °F 32.0 °F 81% 30.29 in 10.0 mi NW 33.4 mph 41.4 mph N/A   Overcast
3:55 PM 37.4 °F 25.0 °F 32.0 °F 81% 30.31 in 10.0 mi NW 29.9 mph 40.3 mph N/A   Overcast
4:15 PM 37.4 °F 24.4 °F 32.0 °F 81% 30.33 in 10.0 mi NW 33.4 mph 39.1 mph N/A   Overcast
4:35 PM 37.4 °F 25.2 °F 32.0 °F 81% 30.34 in 10.0 mi NW 28.8 mph 38.0 mph N/A   Overcast
4:55 PM 37.4 °F 25.4 °F 32.0 °F 81% 30.36 in 10.0 mi NNW 27.6 mph 39.1 mph N/A   Overcast
5:15 PM 37.4 °F 25.4 °F 30.2 °F 75% 30.37 in 10.0 mi NNW 27.6 mph - N/A   Overcast
5:35 PM 37.4 °F 24.6 °F 33.8 °F 87% 30.37 in 10.0 mi NNW 32.2 mph 39.1 mph N/A   Overcast
5:55 PM 37.4 °F 24.4 °F 30.2 °F 75% 30.39 in 10.0 mi NNW 33.4 mph 42.6 mph N/A   Overcast
6:15 PM 35.6 °F 23.4 °F 30.2 °F 81% 30.39 in 10.0 mi NNW 25.3 mph 35.7 mph N/A   Overcast
6:35 PM 35.6 °F 24.0 °F 30.2 °F 81% 30.40 in 10.0 mi NNW 23.0 mph 29.9 mph N/A   Mostly Cloudy
6:55 PM 35.6 °F 25.5 °F 30.2 °F 81% 30.41 in 10.0 mi NNW 17.3 mph - N/A   Overcast
7:15 PM 35.6 °F 27.5 °F 30.2 °F 81% 30.41 in 10.0 mi NNW 11.5 mph - N/A   Mostly Cloudy
7:35 PM 35.6 °F 27.1 °F 28.4 °F 75% 30.41 in 10.0 mi NW 12.7 mph - N/A   Partly Cloudy
7:55 PM 33.8 °F 24.3 °F 28.4 °F 81% 30.41 in 10.0 mi NW 13.8 mph - N/A   Clear
8:15 PM 33.8 °F 23.5 °F 28.4 °F 81% 30.42 in 10.0 mi NW 16.1 mph - N/A   Clear
8:35 PM 33.8 °F 24.3 °F 28.4 °F 81% 30.42 in 10.0 mi NW 13.8 mph - N/A   Clear
8:55 PM 33.8 °F 23.9 °F 28.4 °F 81% 30.42 in 10.0 mi NW 15.0 mph - N/A   Clear
9:15 PM 33.8 °F 23.5 °F 28.4 °F 81% 30.42 in 10.0 mi NW 16.1 mph 20.7 mph N/A   Clear
9:35 PM 33.8 °F 23.9 °F 26.6 °F 75% 30.42 in 10.0 mi NW 15.0 mph - N/A   Clear
9:55 PM 33.8 °F 24.3 °F 26.6 °F 75% 30.43 in 10.0 mi NW 13.8 mph 18.4 mph N/A   Clear
10:15 PM - - - N/A% - - North - - N/A   Unknown
10:35 PM - - - N/A% - - North - - N/A   Unknown
10:55 PM - - - N/A% - - North - - N/A   Unknown
11:15 PM - - - N/A% - - North - - N/A   Unknown
11:35 PM - - - N/A% - - North - - N/A   Unknown
11:55 PM - - - N/A% - - North - - N/A   Unknown